{"data":{"norad_id":57399,"intl_designator":"2023-101A","name":"TIANMU-1 07","alt_names":[],"object_type":"PAYLOAD","status":"ACTIVE","operator":null,"country":"PRC","launch_date":"2023-07-20","launch_site_code":"JSC","launch_vehicle":null,"mission":null,"orbit_class":"UNKNOWN","rcs_meters":null,"size_class":null,"mass_kg":null,"dimensions":null,"purposes":["earth_obs"],"wikipedia_slug":null,"has_3d_model":false,"image_url":null,"decayed_at":null,"tle_current":{"epoch":"2026-05-25T04:54:25.292160Z","epoch_age_seconds":58171,"freshness":"FRESH","line1":"1 57399U 23101A   26145.20445940  .00006055  00000+0  21434-3 0  9998","line2":"2 57399  97.2608 196.4041 0002268 173.0101 187.1171 15.29496939158134","mean_motion":15.29496939,"eccentricity":0.0002268,"inclination_deg":97.2608,"raan_deg":196.4041,"arg_perigee_deg":173.0101,"mean_anomaly_deg":187.1171,"bstar":0.00021434,"rev_number":15813,"period_min":94.148602934863,"perigee_km":475.76027038128,"apogee_km":478.86990344791,"semimajor_km":6855.4520869146,"source":"CELESTRAK","updated_at":"2026-05-25T13:38:12.254905Z"}}}